Wind_Speed
44 44 43 43 43 44 46 46 46 44 43 42 43 43 43 43 42 42 42 42 42 43 44 44 45 46 48 49 51 52 52 53 54 54 55 56 56 56 57 56 56 55 55 55
44 44 44 44 43 43 44 45 46 45 45 43 43 43 43 43 44 44 44 44 44 44 45 46 47 48 49 50 51 51 52 52 53 54 55 55 56 56 55 55 55 54 54 52
41 43 44 45 43 43 43 43 44 45 44 44 44 44 44 44 44 45 45 45 45 46 46 47 48 49 50 50 50 51 52 52 53 54 54 55 55 54 54 53 53 52 51 50
39 41 43 44 43 42 43 43 43 44 44 45 46 46 46 46 46 46 47 47 47 47 48 48 49 50 50 50 51 51 52 52 53 53 54 53 53 52 52 51 51 50 48 48
37 39 41 42 41 41 42 43 43 44 45 46 47 47 47 46 46 47 47 47 47 48 48 48 49 49 49 50 51 51 51 52 52 52 52 51 51 50 49 48 48 46 45 44
35 36 38 38 39 39 41 42 42 43 44 44 45 46 45 45 45 45 46 46 46 47 47 48 48 49 49 49 49 50 50 51 50 49 48 48 47 47 46 45 44 42 41 41
33 34 35 35 36 37 38 39 40 41 41 42 43 43 44 44 44 44 44 45 45 46 46 46 47 47 48 49 49 49 49 48 47 46 46 45 44 44 43 42 41 40 39 39
31 32 32 33 34 35 36 36 37 37 38 39 40 40 41 42 42 43 43 44 44 44 44 45 46 46 47 47 47 47 47 46 45 44 44 43 42 41 40 39 39 39 38 38
31 31 31 31 33 34 35 36 36 36 36 36 37 38 39 40 41 42 42 43 43 43 43 44 45 45 45 45 45 45 44 44 43 42 41 40 39 38 38 38 38 37 37 36
29 29 30 31 31 32 33 34 34 35 35 35 35 36 38 39 39 40 40 41 41 42 42 42 43 43 43 43 43 43 43 42 40 39 38 38 37 37 36 36 36 35 35 34
28 29 29 30 30 30 31 32 32 33 33 33 34 35 36 36 37 37 38 39 39 40 40 41 41 41 42 42 42 41 40 39 38 38 38 37 37 36 36 35 34 34 33 31
26 27 27 27 28 29 30 30 30 31 32 32 33 33 34 34 35 36 37 37 38 38 39 40 40 40 40 39 39 38 38 37 38 37 37 36 35 35 34 33 31 30 29 28
25 24 25 25 27 27 28 29 29 30 30 31 33 34 34 35 36 36 37 37 38 38 38 39 39 39 38 38 37 37 37 37 36 36 35 35 34 33 32 30 28 28 27 26
24 23 23 24 24 25 27 28 29 29 30 31 33 34 35 35 35 36 36 36 37 37 37 37 37 37 37 37 37 36 36 35 34 33 33 32 31 30 30 29 27 27 26 26
23 23 24 24 24 24 25 25 26 27 28 30 31 32 33 33 33 34 34 34 35 35 35 35 35 35 35 35 35 34 33 32 31 30 29 29 28 28 27 27 26 25 23 22
22 23 23 24 24 24 25 25 25 26 27 28 29 30 30 30 31 31 32 32 33 33 33 34 34 34 33 33 32 31 30 29 28 28 26 26 26 25 24 23 22 21 19 17
22 22 23 24 24 24 24 25 26 26 26 27 28 28 29 29 29 29 30 31 31 31 31 31 31 31 31 30 29 29 28 27 26 25 24 23 23 22 20 18 17 16 15 14
22 22 23 23 24 24 24 24 25 25 25 25 26 26 27 27 27 28 28 28 28 28 28 28 28 27 27 27 26 26 25 24 23 22 20 19 18 17 16 15 14 14 13 12
20 20 21 21 22 22 23 22 23 23 23 24 24 25 25 25 25 25 25 25 25 25 25 26 25 25 24 23 23 21 20 19 19 18 18 17 17 16 15 14 13 12 12 11
17 17 18 19 20 20 20 20 20 20 20 21 21 22 22 22 23 23 23 24 24 24 24 24 23 22 21 21 20 19 18 18 17 17 17 16 15 15 14 13 13 12 11 11
15 15 16 17 17 17 17 17 17 17 18 18 19 19 20 20 21 22 22 23 23 23 23 22 21 20 20 19 18 18 18 18 17 17 16 15 14 13 13 13 12 12 12 11
13 14 14 14 14 15 15 15 16 16 17 17 17 18 19 19 20 21 21 21 21 21 21 20 20 19 18 17 17 17 17 16 16 15 14 13 13 13 12 12 12 12 12 11
12 12 12 12 13 14 14 15 15 15 15 16 16 17 17 18 19 19 19 19 19 19 19 18 18 17 16 16 16 15 15 14 13 13 13 12 11 11 11 11 10 11 12 12
11 11 11 12 12 13 13 14 15 15 15 16 16 16 17 17 17 17 16 16 16 16 16 15 15 15 15 14 14 14 13 12 12 11 10 10 10 9 9 9 9 10 11 12
11 11 11 11 12 12 13 14 14 15 15 16 16 15 15 15 14 14 14 13 13 13 13 13 13 13 12 12 12 12 11 11 10 10 9 9 9 8 8 9 10 11 12 13
12 12 12 12 12 13 13 13 14 14 14 14 14 13 13 12 12 11 11 11 11 10 10 10 10 10 10 10 10 9 9 9 9 9 9 9 9 8 8 9 11 13 14 15
12 12 12 12 12 12 13 13 13 13 12 12 12 12 11 10 10 9 9 9 9 8 8 8 7 7 7 7 7 7 8 8 9 9 10 9 9 9 10 11 13 15 16 16
Wind_Direction
237 238 238 239 239 240 241 243 245 246 248 250 252 255 257 258 258 259 260 261 263 264 266 268 270 272 274 276 277 279 280 282 283 285 286 287 288 290 291 291 291 291 291 291
238 239 240 239 239 240 242 243 245 246 247 249 252 254 256 257 259 259 260 262 264 266 268 269 271 273 275 277 278 280 281 282 283 285 286 288 289 290 290 290 291 291 291 292
240 241 242 242 241 243 243 244 245 247 248 250 252 254 256 258 259 260 261 263 266 267 269 270 272 275 276 278 279 281 282 283 285 286 286 288 289 289 290 290 291 291 291 291
241 242 243 244 243 245 245 245 246 247 249 251 253 255 257 258 260 262 263 264 266 268 269 271 273 276 277 278 280 282 283 284 285 286 287 288 289 289 289 290 290 290 290 291
242 243 245 244 245 246 247 248 248 250 252 253 255 257 259 261 262 263 264 265 267 268 270 272 275 276 277 279 281 283 285 286 286 287 288 288 289 289 290 290 291 290 290 290
240 242 244 246 246 247 248 250 250 252 254 255 257 259 260 261 263 264 265 266 268 270 272 273 276 277 278 280 282 284 286 287 287 287 287 288 288 289 290 290 290 290 290 291
239 242 243 244 246 247 249 251 251 253 255 256 258 259 261 262 263 265 266 267 269 271 273 275 276 278 278 280 282 284 285 286 287 286 286 287 287 288 288 289 289 289 289 290
240 242 243 243 245 247 250 251 253 255 256 257 259 260 261 262 264 266 268 269 271 272 274 276 277 279 279 280 281 283 284 285 285 285 285 286 286 287 287 288 289 289 289 289
244 246 247 247 248 250 251 253 255 256 257 258 259 260 261 262 264 267 269 270 271 272 275 277 278 280 280 281 282 283 283 283 283 284 284 284 285 286 287 288 289 289 290 289
247 247 248 249 250 251 253 254 256 257 257 259 260 261 262 264 265 266 268 270 271 273 275 276 278 279 279 280 281 282 283 282 281 282 283 283 285 287 287 288 289 289 289 289
249 249 249 251 253 255 256 256 256 257 259 260 262 262 263 264 265 266 268 269 271 272 274 276 278 280 280 280 281 282 282 281 280 281 282 282 284 286 287 288 288 288 288 287
248 249 251 253 255 256 256 256 257 258 259 261 262 263 263 264 265 266 268 269 271 273 275 277 279 280 281 281 282 282 282 281 281 281 280 281 282 284 285 286 286 288 289 287
247 249 251 252 253 253 255 256 258 259 259 262 263 264 265 266 267 268 269 270 272 274 276 278 280 281 280 281 282 283 283 282 281 280 279 280 281 281 282 282 284 287 290 289
248 250 251 252 254 254 256 258 260 261 262 264 266 267 267 268 268 269 270 271 273 275 277 279 280 281 281 281 281 282 283 282 281 280 279 278 280 280 280 280 282 285 287 288
251 252 253 254 256 258 260 261 263 264 265 266 267 268 268 268 268 269 270 272 274 276 277 278 280 281 281 281 280 280 281 280 279 279 277 277 279 280 280 281 281 283 285 283
251 253 255 256 257 259 261 262 264 266 267 268 268 268 268 268 269 270 271 273 275 276 277 278 279 279 280 280 278 279 280 279 278 277 276 277 279 279 280 281 280 281 281 278
256 257 257 257 258 259 261 263 265 267 268 269 269 268 268 268 269 271 273 275 277 278 279 279 280 280 280 279 278 279 279 278 277 276 274 275 276 277 277 277 277 277 276 273
258 258 258 257 258 261 264 266 266 267 268 269 269 269 269 269 270 271 274 276 278 279 280 281 282 282 281 279 277 278 277 275 275 273 272 272 272 272 272 273 272 270 268 264
260 258 259 261 263 264 266 266 267 268 269 271 271 270 270 269 270 272 275 276 278 279 281 283 283 282 280 278 277 276 275 274 273 271 269 270 271 269 268 269 267 264 261 254
260 260 261 263 266 268 269 268 268 269 270 272 272 272 271 272 273 274 276 277 278 279 281 283 282 281 278 277 275 273 273 273 271 268 268 268 268 267 265 262 259 256 251 243
262 263 265 267 268 269 270 271 271 270 271 272 273 273 273 274 276 277 278 279 280 281 281 281 281 280 278 275 273 272 273 272 269 266 265 263 261 261 260 255 251 245 238 230
266 267 268 270 270 271 272 273 273 273 274 275 275 276 277 278 280 281 282 282 281 281 281 280 279 277 276 274 272 272 272 270 266 261 260 258 255 252 250 247 242 233 223 214
269 270 271 273 274 274 276 277 278 278 279 279 280 280 280 281 282 283 283 283 284 283 281 278 274 273 273 273 272 271 269 265 260 257 253 250 247 246 243 236 229 220 211 204
269 271 274 276 277 278 279 280 281 282 284 284 285 284 284 285 285 284 284 285 285 284 281 277 272 271 271 271 269 265 261 256 252 247 241 238 238 236 228 220 214 205 198 194
270 274 276 278 281 284 285 284 284 285 285 286 287 288 288 287 286 286 287 289 289 285 281 276 273 270 269 267 264 258 251 246 240 233 227 225 223 218 210 203 197 191 186 183
270 273 275 279 283 286 288 289 289 289 288 287 287 288 289 288 287 288 291 294 294 289 283 279 276 271 265 263 260 252 244 236 226 218 214 211 210 205 197 191 186 181 177 176
272 274 276 279 283 286 290 293 293 291 289 287 287 288 290 290 290 289 291 294 296 292 287 283 279 272 265 257 248 239 230 219 208 203 199 199 196 189 182 176 172 169 167 166
Height
5561 5565 5570 5574 5578 5582 5585 5590 5594 5599 5602 5604 5605 5607 5609 5612 5613 5615 5616 5618 5619 5619 5619 5619 5618 5617 5616 5614 5612 5609 5607 5604 5601 5598 5594 5590 5585 5581 5576 5571 5567 5562 5557 5552
5550 5555 5558 5562 5567 5570 5574 5578 5582 5586 5590 5593 5594 5596 5598 5600 5602 5603 5605 5606 5606 5607 5607 5606 5605 5604 5603 5601 5598 5595 5593 5590 5587 5584 5580 5576 5571 5567 5562 5558 5553 5548 5543 5539
5541 5545 5547 5551 5558 5561 5565 5568 5571 5574 5580 5581 5583 5585 5587 5588 5590 5591 5592 5593 5594 5594 5594 5593 5592 5591 5589 5587 5585 5582 5579 5576 5573 5569 5566 5562 5557 5553 5548 5544 5539 5535 5530 5526
5530 5534 5537 5544 5547 5551 5554 5557 5560 5563 5566 5569 5571 5573 5575 5577 5578 5579 5580 5581 5581 5581 5580 5580 5579 5577 5575 5573 5571 5568 5565 5562 5559 5555 5552 5548 5544 5539 5535 5531 5526 5522 5518 5514
5521 5523 5526 5532 5537 5540 5543 5546 5549 5552 5555 5557 5559 5561 5563 5564 5565 5567 5567 5567 5567 5567 5567 5566 5565 5563 5561 5559 5556 5554 5551 5548 5544 5541 5537 5534 5530 5526 5522 5518 5514 5510 5506 5502
5512 5514 5518 5523 5527 5529 5532 5535 5538 5541 5543 5545 5547 5549 5552 5552 5553 5553 5554 5554 5554 5554 5553 5552 5551 5549 5547 5545 5543 5540 5537 5534 5530 5527 5523 5520 5517 5513 5510 5506 5502 5499 5495 5491
5503 5505 5508 5513 5515 5518 5523 5525 5527 5529 5532 5534 5536 5538 5539 5540 5540 5541 5541 5541 5541 5540 5540 5539 5537 5535 5533 5531 5529 5526 5523 5520 5517 5514 5511 5508 5505 5502 5498 5495 5492 5488 5485 5481
5494 5497 5502 5503 5506 5509 5510 5513 5516 5518 5520 5522 5524 5525 5526 5527 5528 5528 5528 5528 5528 5527 5527 5525 5524 5522 5520 5518 5516 5513 5511 5508 5505 5502 5499 5496 5494 5491 5487 5484 5481 5478 5474 5471
5487 5491 5492 5494 5496 5498 5501 5503 5505 5507 5510 5511 5513 5514 5515 5515 5516 5516 5516 5516 5515 5515 5514 5512 5511 5509 5507 5505 5503 5501 5498 5496 5493 5490 5488 5485 5483 5480 5477 5474 5471 5468 5464 5461
5478 5481 5483 5485 5486 5489 5491 5493 5495 5497 5499 5500 5502 5503 5503 5504 5504 5504 5504 5504 5503 5503 5502 5500 5498 5496 5494 5492 5490 5488 5486 5484 5482 5480 5477 5475 5473 5470 5467 5464 5461 5458 5455 5452
5469 5472 5474 5476 5478 5480 5482 5483 5485 5487 5489 5490 5491 5492 5492 5492 5493 5493 5493 5492 5491 5491 5489 5488 5486 5484 5482 5480 5478 5476 5474 5473 5471 5469 5467 5465 5462 5460 5457 5455 5451 5448 5446 5443
5462 5464 5466 5468 5470 5471 5473 5474 5476 5477 5478 5479 5480 5481 5481 5481 5482 5481 5481 5480 5480 5479 5477 5476 5474 5472 5470 5468 5467 5465 5464 5462 5460 5458 5456 5454 5453 5450 5448 5445 5443 5439 5437 5434
5455 5456 5458 5460 5461 5462 5464 5465 5467 5468 5468 5469 5470 5470 5470 5471 5470 5470 5470 5469 5468 5467 5466 5464 5462 5461 5458 5457 5456 5454 5453 5451 5449 5447 5446 5444 5443 5441 5439 5437 5434 5432 5429 5427
5447 5449 5451 5452 5453 5454 5455 5457 5457 5458 5459 5459 5459 5459 5459 5459 5459 5459 5458 5457 5456 5455 5454 5453 5451 5449 5447 5446 5444 5443 5441 5440 5438 5437 5435 5434 5433 5431 5430 5428 5427 5424 5422 5420
5440 5442 5443 5444 5445 5446 5447 5448 5448 5449 5449 5449 5449 5449 5449 5448 5448 5448 5447 5446 5446 5445 5443 5442 5440 5438 5436 5435 5433 5432 5431 5430 5428 5427 5426 5425 5424 5422 5421 5420 5418 5417 5415 5414
5433 5434 5435 5437 5438 5438 5439 5439 5440 5440 5440 5439 5439 5439 5438 5438 5438 5437 5437 5436 5435 5434 5433 5431 5430 5428 5426 5425 5423 5422 5421 5420 5419 5418 5417 5416 5415 5414 5413 5412 5411 5410 5409 5408
5426 5427 5428 5429 5430 5430 5431 5431 5431 5431 5430 5430 5430 5429 5429 5429 5428 5428 5427 5426 5425 5424 5422 5421 5419 5417 5416 5415 5414 5413 5412 5411 5410 5410 5409 5408 5408 5407 5406 5405 5405 5404 5404 5403
5419 5420 5421 5421 5422 5422 5423 5423 5422 5422 5422 5421 5421 5420 5420 5420 5419 5419 5418 5416 5415 5414 5413 5411 5410 5408 5407 5405 5404 5404 5403 5402 5402 5402 5401 5401 5401 5400 5400 5400 5399 5399 5399 5399
5412 5413 5413 5414 5414 5414 5414 5414 5414 5414 5413 5413 5412 5412 5411 5411 5410 5410 5409 5408 5406 5405 5404 5402 5401 5399 5398 5397 5396 5395 5395 5395 5395 5395 5395 5395 5395 5395 5395 5395 5395 5395 5395 5395
5406 5406 5406 5407 5407 5407 5407 5407 5406 5406 5405 5405 5404 5404 5403 5403 5402 5401 5400 5399 5398 5397 5396 5394 5392 5391 5390 5389 5389 5389 5388 5388 5388 5388 5388 5389 5389 5389 5389 5390 5390 5390 5391 5391
5400 5400 5400 5400 5400 5400 5400 5400 5399 5399 5398 5398 5397 5397 5396 5395 5394 5393 5392 5391 5390 5389 5387 5386 5385 5384 5383 5382 5382 5382 5382 5382 5382 5382 5383 5383 5384 5384 5384 5385 5385 5386 5387 5388
5395 5395 5395 5395 5394 5394 5394 5394 5393 5393 5392 5391 5391 5390 5389 5388 5387 5385 5384 5383 5382 5381 5379 5378 5377 5377 5376 5376 5376 5375 5376 5376 5376 5376 5377 5378 5379 5379 5380 5380 5381 5382 5384 5385
5390 5390 5390 5389 5389 5389 5388 5388 5387 5386 5386 5385 5384 5383 5382 5381 5379 5378 5377 5376 5374 5373 5372 5371 5371 5370 5370 5370 5370 5370 5370 5370 5371 5371 5372 5373 5374 5375 5376 5376 5378 5379 5381 5383
5385 5385 5385 5385 5384 5384 5383 5382 5381 5381 5380 5379 5378 5376 5375 5374 5373 5371 5370 5369 5368 5366 5365 5365 5364 5364 5364 5364 5364 5364 5365 5365 5366 5367 5368 5369 5370 5371 5372 5373 5375 5376 5378 5381
5381 5381 5380 5380 5379 5379 5378 5377 5376 5375 5374 5373 5372 5371 5369 5368 5367 5366 5365 5363 5362 5361 5360 5359 5359 5359 5359 5359 5359 5360 5360 5361 5362 5363 5364 5365 5367 5368 5369 5370 5372 5374 5376 5379
5377 5376 5376 5376 5375 5374 5373 5372 5370 5369 5368 5367 5366 5365 5364 5363 5362 5361 5360 5359 5357 5356 5355 5355 5354 5354 5355 5355 5355 5355 5356 5357 5358 5359 5361 5362 5364 5365 5367 5368 5370 5372 5375 5378
5372 5372 5371 5371 5370 5369 5368 5367 5365 5364 5363 5362 5362 5361 5360 5359 5358 5357 5356 5355 5354 5353 5352 5351 5351 5351 5351 5351 5352 5352 5353 5354 5355 5357 5359 5360 5362 5364 5365 5367 5369 5372 5375 5378